This demonstration page uses our WeatherBlox Daily Observations layout. Learn more.

Left ArrowRight Arrow

Hourly Observations for December 20, 2015

Temp ( °F °C ) Dew Point ( °F °C ) Humidity (%) Winds ( mph kmh ) Pressure ( in mb ) Visibility ( mi km ) Precip ( " mm )
12:51 am 00:51 Clear 53 11.7 23 -5 31 31 VRB 5 7 29.93 1014 10 16 N/A
1:51 am 01:51 Clear 49 9.4 24 -4.4 38 38 NW 14 22 29.92 1013 10 16 N/A
2:51 am 02:51 Clear 44 6.7 26 -3.3 49 49 NW 7 11 29.95 1014 10 16 N/A
3:51 am 03:51 Clear 41 5 26 -3.3 55 55 WNW 6 9 29.97 1015 10 16 N/A
4:51 am 04:51 Clear 38 3.3 26 -3.3 62 62 ENE 10 17 29.97 1015 10 16 N/A
5:51 am 05:51 Clear 39 3.9 26 -3.3 60 60 E 7 11 29.97 1015 10 16 N/A
6:51 am 06:51 Clear 38 3.3 26 -3.3 62 62 E 6 9 30.00 1016 10 16 N/A
7:51 am 07:51 Sunny 37 2.8 25 -3.9 62 62 NE 7 11 30.01 1016 10 16 N/A
8:51 am 08:51 Sunny 48 8.9 28 -2.2 46 46 WSW 6 9 30.03 1017 10 16 N/A
9:51 am 09:51 Sunny 52 11.1 28 -2.2 40 40 W 7 11 30.04 1017 10 16 N/A
10:51 am 10:51 Sunny 56 13.3 30 -1.1 37 37 WNW 18 30 30.04 1017 10 16 N/A
11:51 am 11:51 Mostly Sunny 57 13.9 33 0.6 41 41 NW 16 26 30.04 1017 10 16 N/A
12:51 pm 12:51 Sunny 60 15.6 33 0.6 36 36 NW 20 31 29.98 1015 10 16 N/A
1:51 pm 13:51 Sunny 59 15 35 1.7 41 41 NW 16 26 29.98 1015 10 16 N/A
2:51 pm 14:51 Sunny 59 15 34 1.1 39 39 NW 17 28 29.98 1015 10 16 N/A
3:51 pm 15:51 Sunny 58 14.4 33 0.6 39 39 WNW 14 22 30.00 1016 10 16 N/A
4:51 pm 16:51 Sunny 55 12.8 33 0.6 44 44 NW 13 20 30.02 1017 10 16 N/A
5:51 pm 17:51 Clear 51 10.6 33 0.6 50 50 NW 9 15 30.03 1017 10 16 N/A
6:51 pm 18:51 Clear 50 10 33 0.6 52 52 NNW 10 17 30.05 1018 10 16 N/A
7:51 pm 19:51 Clear 44 6.7 33 0.6 65 65 W 8 13 30.09 1019 10 16 N/A
8:51 pm 20:51 Clear 46 7.8 34 1.1 63 63 WNW 9 15 30.07 1018 10 16 N/A
9:51 pm 21:51 Clear 46 7.8 35 1.7 66 66 WNW 7 11 30.06 1018 10 16 N/A
10:51 pm 22:51 Clear 46 7.8 35 1.7 66 66 WNW 7 11 30.06 1018 10 16 N/A
11:51 pm 23:51 Clear 45 7.2 35 1.7 68 68 WNW 6 9 30.08 1019 10 16 N/A

Powered by AerisWeather